This is the latest recevied weather packets stored in our database for station/object K0WOI. If no packets are shown the sender has not sent any weather packets the latest 10 day(s).
| Time | Temp. | Humidity | Pressure | Rain* | Wind** | Luminosity | Snow |
|---|---|---|---|---|---|---|---|
| 1777699915 | 3.33° C | 94% | 1019.3 hPa | 0 mm | - | 0 W/m² | - |
| 1777699613 | 3.33° C | 94% | 1019.3 hPa | 0 mm | - | 0 W/m² | - |
| 1777699311 | 3.33° C | 93% | 1019.2 hPa | 0 mm | - | 0 W/m² | - |
| 1777699009 | 3.89° C | 93% | 1019.4 hPa | 0 mm | - | 0 W/m² | - |
| 1777698707 | 3.33° C | 92% | 1019.3 hPa | 0 mm | - | 0 W/m² | - |
| 1777698403 | 3.89° C | 91% | 1019.3 hPa | 0 mm | - | 0 W/m² | - |
| 1777698100 | 3.33° C | 91% | 1019.3 hPa | 0 mm | - | 0 W/m² | - |
| 1777697796 | 3.89° C | 93% | 1019.3 hPa | 0 mm | - | 0 W/m² | - |
| 1777697494 | 3.89° C | 93% | 1019.4 hPa | 0 mm | - | 0 W/m² | - |
| 1777697190 | 3.89° C | 92% | 1019.2 hPa | 0 mm | - | 0 W/m² | - |
| 1777696886 | 3.89° C | 91% | 1019.3 hPa | 0 mm | - | 0 W/m² | - |
| 1777696585 | 3.89° C | 91% | 1019.1 hPa | 0 mm | - | 0 W/m² | - |
| 1777696281 | 3.89° C | 90% | 1018.9 hPa | 0 mm | - | 0 W/m² | - |
| 1777695975 | 3.89° C | 90% | 1019 hPa | 0 mm | - | 0 W/m² | - |
| 1777695673 | 4.44° C | 91% | 1019.2 hPa | 0 mm | - | 0 W/m² | - |
| 1777695370 | 3.89° C | 90% | 1019.1 hPa | 0 mm | - | 0 W/m² | - |
| 1777695067 | 4.44° C | 90% | 1019 hPa | 0 mm | - | 0 W/m² | - |
| 1777694764 | 4.44° C | 90% | 1019.2 hPa | 0 mm | - | 0 W/m² | - |
| 1777694461 | 4.44° C | 89% | 1018.8 hPa | 0 mm | - | 0 W/m² | - |
| 1777694157 | 4.44° C | 87% | 1019.2 hPa | 0 mm | - | 0 W/m² | - |
| 1777693854 | 5° C | 85% | 1019 hPa | 0 mm | - | 0 W/m² | - |
| 1777693552 | 5° C | 85% | 1019.1 hPa | 0 mm | - | 0 W/m² | - |
| 1777693250 | 5.56° C | 83% | 1018.9 hPa | 0 mm | - | 0 W/m² | - |
| 1777692948 | 5.56° C | 83% | 1019.1 hPa | 0 mm | - | 0 W/m² | - |
| 1777692646 | 6.11° C | 81% | 1019.1 hPa | 0 mm | - | 0 W/m² | - |
* Rain latest hour (hover to see other rain measurements)
** Current wind speed in m/s (hover to see current wind gust speed)